Year,Month,Day,Hour,Minute,Value (Times are PST for windspeed in km/hr)
2007,01,03,00,00,0.00
2007,01,03,00,01,0.00
2007,01,03,00,02,0.00
2007,01,03,00,03,0.00
2007,01,03,00,04,0.00
2007,01,03,00,05,0.00
2007,01,03,00,06,0.00
2007,01,03,00,07,1.10
2007,01,03,00,08,1.00
2007,01,03,00,09,0.00
2007,01,03,00,10,0.00
2007,01,03,00,11,0.00
2007,01,03,00,12,0.00
2007,01,03,00,13,1.20
2007,01,03,00,14,0.50
2007,01,03,00,15,0.00
2007,01,03,00,16,0.00
2007,01,03,00,17,0.30
2007,01,03,00,18,0.60
2007,01,03,00,19,0.00
2007,01,03,00,20,0.00
2007,01,03,00,21,0.00
2007,01,03,00,22,0.00
2007,01,03,00,23,0.00
2007,01,03,00,24,0.00
2007,01,03,00,25,0.00
2007,01,03,00,26,0.00
2007,01,03,00,27,0.00
2007,01,03,00,28,0.90
2007,01,03,00,29,0.00
2007,01,03,00,30,0.30
2007,01,03,00,31,0.00
2007,01,03,00,32,0.00
2007,01,03,00,33,0.00
2007,01,03,00,34,0.00
2007,01,03,00,35,0.00
2007,01,03,00,36,0.00
2007,01,03,00,37,0.00
2007,01,03,00,38,0.00
2007,01,03,00,39,0.00
2007,01,03,00,40,1.10
2007,01,03,00,41,3.70
2007,01,03,00,42,2.00
2007,01,03,00,43,0.10
2007,01,03,00,44,0.90
2007,01,03,00,45,0.00
2007,01,03,00,46,0.10
2007,01,03,00,47,0.00
2007,01,03,00,48,0.00
2007,01,03,00,49,0.00
2007,01,03,00,50,0.00
2007,01,03,00,51,0.00
2007,01,03,00,52,0.40
2007,01,03,00,53,0.30
2007,01,03,00,54,0.00
2007,01,03,00,55,2.80
2007,01,03,00,56,1.50
2007,01,03,00,57,0.50
2007,01,03,00,58,0.00
2007,01,03,00,59,0.00
2007,01,03,01,00,0.00
2007,01,03,01,01,0.00
2007,01,03,01,02,0.00
2007,01,03,01,03,0.00
2007,01,03,01,04,0.00
2007,01,03,01,05,0.00
2007,01,03,01,06,0.00
2007,01,03,01,07,0.00
2007,01,03,01,08,0.00
2007,01,03,01,09,0.00
2007,01,03,01,10,0.20
2007,01,03,01,11,0.00
2007,01,03,01,12,0.00
2007,01,03,01,13,0.00
2007,01,03,01,14,0.00
2007,01,03,01,15,0.30
2007,01,03,01,16,0.10
2007,01,03,01,17,0.00
2007,01,03,01,18,0.00
2007,01,03,01,19,0.00
2007,01,03,01,20,0.00
2007,01,03,01,21,0.00
2007,01,03,01,22,0.00
2007,01,03,01,23,0.00
2007,01,03,01,24,0.00
2007,01,03,01,25,0.00
2007,01,03,01,26,0.00
2007,01,03,01,27,0.00
2007,01,03,01,28,1.30
2007,01,03,01,29,0.30
2007,01,03,01,30,0.00
2007,01,03,01,31,0.90
2007,01,03,01,32,0.00
2007,01,03,01,33,0.00
2007,01,03,01,34,0.00
2007,01,03,01,35,0.00
2007,01,03,01,36,0.00
2007,01,03,01,37,0.00
2007,01,03,01,38,2.20
2007,01,03,01,39,3.00
2007,01,03,01,40,2.70
2007,01,03,01,41,3.50
2007,01,03,01,42,3.90
2007,01,03,01,43,3.00
2007,01,03,01,44,0.20
2007,01,03,01,45,0.00
2007,01,03,01,46,0.00
2007,01,03,01,47,0.00
2007,01,03,01,48,0.00
2007,01,03,01,49,0.20
2007,01,03,01,50,3.20
2007,01,03,01,51,1.00
2007,01,03,01,52,0.00
2007,01,03,01,53,1.90
2007,01,03,01,54,0.20
2007,01,03,01,55,0.00
2007,01,03,01,56,1.80
2007,01,03,01,57,2.50
2007,01,03,01,58,3.10
2007,01,03,01,59,3.50
2007,01,03,02,00,4.10
2007,01,03,02,01,3.10
2007,01,03,02,02,2.60
2007,01,03,02,03,2.80
2007,01,03,02,04,6.50
2007,01,03,02,05,6.10
2007,01,03,02,06,5.70
2007,01,03,02,07,5.50
2007,01,03,02,08,5.20
2007,01,03,02,09,5.10
2007,01,03,02,10,5.10
2007,01,03,02,11,5.60
2007,01,03,02,12,6.60
2007,01,03,02,13,6.50
2007,01,03,02,14,5.70
2007,01,03,02,15,5.00
2007,01,03,02,16,5.60
2007,01,03,02,17,4.60
2007,01,03,02,18,5.30
2007,01,03,02,19,5.60
2007,01,03,02,20,5.60
2007,01,03,02,21,4.80
2007,01,03,02,22,5.20
2007,01,03,02,23,3.80
2007,01,03,02,24,1.00
2007,01,03,02,25,0.00
2007,01,03,02,26,2.10
2007,01,03,02,27,3.20
2007,01,03,02,28,3.30
2007,01,03,02,29,3.40
2007,01,03,02,30,4.10
2007,01,03,02,31,3.90
2007,01,03,02,32,2.40
2007,01,03,02,33,2.10
2007,01,03,02,34,1.50
2007,01,03,02,35,3.60
2007,01,03,02,36,4.10
2007,01,03,02,37,3.10
2007,01,03,02,38,3.80
2007,01,03,02,39,4.10
2007,01,03,02,40,3.50
2007,01,03,02,41,5.10
2007,01,03,02,42,4.50
2007,01,03,02,43,3.60
2007,01,03,02,44,3.60
2007,01,03,02,45,2.80
2007,01,03,02,46,4.50
2007,01,03,02,47,2.50
2007,01,03,02,48,1.90
2007,01,03,02,49,1.90
2007,01,03,02,50,2.00
2007,01,03,02,51,0.10
2007,01,03,02,52,0.00
2007,01,03,02,53,0.30
2007,01,03,02,54,1.10
2007,01,03,02,55,0.00
2007,01,03,02,56,2.20
2007,01,03,02,57,2.70
2007,01,03,02,58,0.00
2007,01,03,02,59,0.50
2007,01,03,03,00,3.40
2007,01,03,03,01,2.60
2007,01,03,03,02,1.70
2007,01,03,03,03,0.50
2007,01,03,03,04,2.40
2007,01,03,03,05,1.30
2007,01,03,03,06,0.00
2007,01,03,03,07,0.00
2007,01,03,03,08,0.00
2007,01,03,03,09,3.10
2007,01,03,03,10,1.20
2007,01,03,03,11,2.40
2007,01,03,03,12,3.70
2007,01,03,03,13,3.30
2007,01,03,03,14,3.10
2007,01,03,03,15,2.70
2007,01,03,03,16,1.80
2007,01,03,03,17,0.00
2007,01,03,03,18,0.00
2007,01,03,03,19,0.10
2007,01,03,03,20,0.90
2007,01,03,03,21,0.40
2007,01,03,03,22,0.90
2007,01,03,03,23,0.30
2007,01,03,03,24,0.60
2007,01,03,03,25,0.00
2007,01,03,03,26,0.00
2007,01,03,03,27,0.10
2007,01,03,03,28,0.90
2007,01,03,03,29,0.60
2007,01,03,03,30,1.20
2007,01,03,03,31,0.00
2007,01,03,03,32,0.10
2007,01,03,03,33,3.90
2007,01,03,03,34,2.00
2007,01,03,03,35,0.60
2007,01,03,03,36,0.90
2007,01,03,03,37,2.20
2007,01,03,03,38,2.30
2007,01,03,03,39,1.60
2007,01,03,03,40,1.20
2007,01,03,03,41,1.80
2007,01,03,03,42,0.80
2007,01,03,03,43,0.60
2007,01,03,03,44,0.00
2007,01,03,03,45,0.00
2007,01,03,03,46,0.00
2007,01,03,03,47,0.10
2007,01,03,03,48,0.10
2007,01,03,03,49,4.40
2007,01,03,03,50,0.30
2007,01,03,03,51,0.00
2007,01,03,03,52,0.00
2007,01,03,03,53,0.00
2007,01,03,03,54,0.00
2007,01,03,03,55,2.30
2007,01,03,03,56,0.60
2007,01,03,03,57,1.70
2007,01,03,03,58,1.80
2007,01,03,03,59,3.60
2007,01,03,04,00,5.10
2007,01,03,04,01,4.80
2007,01,03,04,02,3.80
2007,01,03,04,03,3.50
2007,01,03,04,04,0.60
2007,01,03,04,05,0.10
2007,01,03,04,06,0.80
2007,01,03,04,07,2.20
2007,01,03,04,08,2.40
2007,01,03,04,09,3.60
2007,01,03,04,10,2.80
2007,01,03,04,11,4.10
2007,01,03,04,12,4.00
2007,01,03,04,13,2.10
2007,01,03,04,14,1.10
2007,01,03,04,15,2.00
2007,01,03,04,16,1.10
2007,01,03,04,17,1.50
2007,01,03,04,18,1.80
2007,01,03,04,19,2.20
2007,01,03,04,20,0.20
2007,01,03,04,21,0.00
2007,01,03,04,22,0.00
2007,01,03,04,23,0.00
2007,01,03,04,24,0.90
2007,01,03,04,25,2.00
2007,01,03,04,26,0.80
2007,01,03,04,27,0.90
2007,01,03,04,28,0.00
2007,01,03,04,29,0.00
2007,01,03,04,30,0.20
2007,01,03,04,31,0.10
2007,01,03,04,32,0.00
2007,01,03,04,33,0.00
2007,01,03,04,34,0.00
2007,01,03,04,35,0.00
2007,01,03,04,36,0.00
2007,01,03,04,37,0.00
2007,01,03,04,38,0.00
2007,01,03,04,39,0.00
2007,01,03,04,40,0.70
2007,01,03,04,41,2.10
2007,01,03,04,42,2.70
2007,01,03,04,43,1.80
2007,01,03,04,44,4.50
2007,01,03,04,45,0.30
2007,01,03,04,46,0.00
2007,01,03,04,47,1.00
2007,01,03,04,48,2.00
2007,01,03,04,49,2.20
2007,01,03,04,50,3.00
2007,01,03,04,51,2.10
2007,01,03,04,52,1.30
2007,01,03,04,53,0.30
2007,01,03,04,54,2.50
2007,01,03,04,55,3.00
2007,01,03,04,56,2.70
2007,01,03,04,57,1.40
2007,01,03,04,58,0.00
2007,01,03,04,59,0.00
2007,01,03,05,00,0.00
2007,01,03,05,01,0.00
2007,01,03,05,02,0.00
2007,01,03,05,03,0.20
2007,01,03,05,04,3.00
2007,01,03,05,05,1.30
2007,01,03,05,06,1.60
2007,01,03,05,07,1.50
2007,01,03,05,08,1.40
2007,01,03,05,09,0.00
2007,01,03,05,10,0.00
2007,01,03,05,11,0.00
2007,01,03,05,12,0.00
2007,01,03,05,13,0.00
2007,01,03,05,14,0.00
2007,01,03,05,15,0.00
2007,01,03,05,16,0.00
2007,01,03,05,17,0.00
2007,01,03,05,18,0.00
2007,01,03,05,19,2.50
2007,01,03,05,20,1.50
2007,01,03,05,21,1.40
2007,01,03,05,22,2.10
2007,01,03,05,23,0.40
2007,01,03,05,24,0.00
2007,01,03,05,25,0.00
2007,01,03,05,26,0.00
2007,01,03,05,27,0.00
2007,01,03,05,28,0.00
2007,01,03,05,29,0.00
2007,01,03,05,30,0.80
2007,01,03,05,31,3.20
2007,01,03,05,32,3.50
2007,01,03,05,33,1.40
2007,01,03,05,34,2.40
2007,01,03,05,35,3.60
2007,01,03,05,36,4.70
2007,01,03,05,37,2.60
2007,01,03,05,38,3.40
2007,01,03,05,39,4.00
2007,01,03,05,40,4.10
2007,01,03,05,41,3.70
2007,01,03,05,42,0.90
2007,01,03,05,43,0.10
2007,01,03,05,44,2.80
2007,01,03,05,45,2.50
2007,01,03,05,46,2.90
2007,01,03,05,47,1.90
2007,01,03,05,48,0.00
2007,01,03,05,49,0.00
2007,01,03,05,50,0.00
2007,01,03,05,51,0.00
2007,01,03,05,52,0.00
2007,01,03,05,53,0.00
2007,01,03,05,54,0.00
2007,01,03,05,55,0.00
2007,01,03,05,56,0.00
2007,01,03,05,57,0.00
2007,01,03,05,58,0.00
2007,01,03,05,59,0.00
2007,01,03,06,00,0.00
2007,01,03,06,01,0.00
2007,01,03,06,02,0.30
2007,01,03,06,03,1.60
2007,01,03,06,04,1.00
2007,01,03,06,05,0.90
2007,01,03,06,06,0.50
2007,01,03,06,07,0.00
2007,01,03,06,08,0.10
2007,01,03,06,09,0.80
2007,01,03,06,10,2.40
2007,01,03,06,11,4.40
2007,01,03,06,12,4.20
2007,01,03,06,13,4.70
2007,01,03,06,14,2.20
2007,01,03,06,15,1.80
2007,01,03,06,16,1.30
2007,01,03,06,17,1.20
2007,01,03,06,18,0.90
2007,01,03,06,19,3.60
2007,01,03,06,20,4.50
2007,01,03,06,21,3.90
2007,01,03,06,22,2.70
2007,01,03,06,23,2.50
2007,01,03,06,24,2.60
2007,01,03,06,25,3.70
2007,01,03,06,26,1.80
2007,01,03,06,27,3.10
2007,01,03,06,28,4.00
2007,01,03,06,29,3.50
2007,01,03,06,30,2.80
2007,01,03,06,31,2.70
2007,01,03,06,32,1.00
2007,01,03,06,33,3.20
2007,01,03,06,34,2.00
2007,01,03,06,35,2.20
2007,01,03,06,36,3.00
2007,01,03,06,37,1.40
2007,01,03,06,38,0.90
2007,01,03,06,39,1.60
2007,01,03,06,40,2.20
2007,01,03,06,41,0.50
2007,01,03,06,42,2.20
2007,01,03,06,43,1.30
2007,01,03,06,44,2.10
2007,01,03,06,45,2.40
2007,01,03,06,46,3.50
2007,01,03,06,47,1.90
2007,01,03,06,48,0.50
2007,01,03,06,49,5.60
2007,01,03,06,50,5.30
2007,01,03,06,51,5.80
2007,01,03,06,52,6.00
2007,01,03,06,53,4.70
2007,01,03,06,54,6.60
2007,01,03,06,55,5.60
2007,01,03,06,56,5.20
2007,01,03,06,57,6.40
2007,01,03,06,58,6.10
2007,01,03,06,59,5.90
2007,01,03,07,00,6.70
2007,01,03,07,01,6.70
2007,01,03,07,02,5.80
2007,01,03,07,03,8.40
2007,01,03,07,04,2.40
2007,01,03,07,05,2.70
2007,01,03,07,06,5.70
2007,01,03,07,07,4.00
2007,01,03,07,08,7.30
2007,01,03,07,09,6.10
2007,01,03,07,10,7.20
2007,01,03,07,11,8.60
2007,01,03,07,12,4.00
2007,01,03,07,13,5.90
2007,01,03,07,14,5.50
2007,01,03,07,15,7.20
2007,01,03,07,16,5.20
2007,01,03,07,17,7.00
2007,01,03,07,18,6.60
2007,01,03,07,19,4.50
2007,01,03,07,20,2.60
2007,01,03,07,21,5.80
2007,01,03,07,22,5.40
2007,01,03,07,23,4.90
2007,01,03,07,24,6.10
2007,01,03,07,25,5.60
2007,01,03,07,26,5.90
2007,01,03,07,27,6.10
2007,01,03,07,28,7.40
2007,01,03,07,29,5.00
2007,01,03,07,30,5.60
2007,01,03,07,31,5.10
2007,01,03,07,32,6.00
2007,01,03,07,33,6.30
2007,01,03,07,34,7.60
2007,01,03,07,35,8.00
2007,01,03,07,36,7.40
2007,01,03,07,37,8.10
2007,01,03,07,38,7.00
2007,01,03,07,39,5.10
2007,01,03,07,40,5.00
2007,01,03,07,41,5.80
2007,01,03,07,42,4.60
2007,01,03,07,43,5.30
2007,01,03,07,44,5.00
2007,01,03,07,45,3.90
2007,01,03,07,46,2.90
2007,01,03,07,47,1.60
2007,01,03,07,48,4.60
2007,01,03,07,49,4.70
2007,01,03,07,50,2.80
2007,01,03,07,51,3.40
2007,01,03,07,52,1.30
2007,01,03,07,53,3.50
2007,01,03,07,54,2.20
2007,01,03,07,55,3.50
2007,01,03,07,56,3.90
2007,01,03,07,57,4.20
2007,01,03,07,58,3.80
2007,01,03,07,59,3.90
2007,01,03,08,00,3.30
2007,01,03,08,01,4.00
2007,01,03,08,02,3.90
2007,01,03,08,03,3.50
2007,01,03,08,04,2.30
2007,01,03,08,05,0.10
2007,01,03,08,06,0.00
2007,01,03,08,07,0.00
2007,01,03,08,08,0.00
2007,01,03,08,09,0.00
2007,01,03,08,10,0.60
2007,01,03,08,11,1.90
2007,01,03,08,12,2.20
2007,01,03,08,13,5.30
2007,01,03,08,14,2.50
2007,01,03,08,15,2.80
2007,01,03,08,16,4.60
2007,01,03,08,17,3.80
2007,01,03,08,18,1.50
2007,01,03,08,19,2.60
2007,01,03,08,20,1.80
2007,01,03,08,21,2.30
2007,01,03,08,22,3.10
2007,01,03,08,23,3.10
2007,01,03,08,24,3.30
2007,01,03,08,25,2.20
2007,01,03,08,26,1.40
2007,01,03,08,27,0.10
2007,01,03,08,28,1.30
2007,01,03,08,29,0.70
2007,01,03,08,30,2.60
2007,01,03,08,31,3.70
2007,01,03,08,32,3.50
2007,01,03,08,33,4.30
2007,01,03,08,34,4.50
2007,01,03,08,35,4.70
2007,01,03,08,36,4.40
2007,01,03,08,37,3.90
2007,01,03,08,38,4.70
2007,01,03,08,39,4.70
2007,01,03,08,40,1.40
2007,01,03,08,41,0.40
2007,01,03,08,42,1.80
2007,01,03,08,43,2.10
2007,01,03,08,44,5.30
2007,01,03,08,45,4.90
2007,01,03,08,46,3.30
2007,01,03,08,47,4.50
2007,01,03,08,48,4.40
2007,01,03,08,49,4.30
2007,01,03,08,50,3.90
2007,01,03,08,51,3.30
2007,01,03,08,52,3.30
2007,01,03,08,53,3.00
2007,01,03,08,54,4.40
2007,01,03,08,55,3.90
2007,01,03,08,56,1.40
2007,01,03,08,57,1.80
2007,01,03,08,58,2.60
2007,01,03,08,59,4.30
2007,01,03,09,00,5.70
2007,01,03,09,01,6.40
2007,01,03,09,02,5.80
2007,01,03,09,03,4.30
2007,01,03,09,04,1.90
2007,01,03,09,05,1.60
2007,01,03,09,06,3.50
2007,01,03,09,07,1.90
2007,01,03,09,08,4.00
2007,01,03,09,09,4.50
2007,01,03,09,10,4.00
2007,01,03,09,11,4.00
2007,01,03,09,12,2.20
2007,01,03,09,13,3.90
2007,01,03,09,14,4.80
2007,01,03,09,15,4.60
2007,01,03,09,16,3.70
2007,01,03,09,17,4.10
2007,01,03,09,18,1.10
2007,01,03,09,19,1.90
2007,01,03,09,20,3.90
2007,01,03,09,21,3.60
2007,01,03,09,22,5.00
2007,01,03,09,23,3.10
2007,01,03,09,24,1.40
2007,01,03,09,25,1.90
2007,01,03,09,26,2.20
2007,01,03,09,27,1.50
2007,01,03,09,28,1.90
2007,01,03,09,29,0.20
2007,01,03,09,30,0.50
2007,01,03,09,31,0.00
2007,01,03,09,32,0.00
2007,01,03,09,33,0.00
2007,01,03,09,34,0.10
2007,01,03,09,35,0.60
2007,01,03,09,36,0.60
2007,01,03,09,37,0.00
2007,01,03,09,38,0.00
2007,01,03,09,39,0.00
2007,01,03,09,40,0.00
2007,01,03,09,41,0.00
2007,01,03,09,42,0.00
2007,01,03,09,43,0.00
2007,01,03,09,44,0.00
2007,01,03,09,45,0.00
2007,01,03,09,46,0.00
2007,01,03,09,47,0.50
2007,01,03,09,48,0.00
2007,01,03,09,49,3.00
2007,01,03,09,50,1.00
2007,01,03,09,51,0.00
2007,01,03,09,52,0.20
2007,01,03,09,53,2.20
2007,01,03,09,54,0.70
2007,01,03,09,55,1.10
2007,01,03,09,56,2.30
2007,01,03,09,57,0.40
2007,01,03,09,58,0.00
2007,01,03,09,59,0.00
2007,01,03,10,00,1.30
2007,01,03,10,01,2.50
2007,01,03,10,02,1.50
2007,01,03,10,03,1.90
2007,01,03,10,04,2.90
2007,01,03,10,05,0.20
2007,01,03,10,06,0.00
2007,01,03,10,07,0.00
2007,01,03,10,08,0.00
2007,01,03,10,09,0.00
2007,01,03,10,10,0.20
2007,01,03,10,11,2.30
2007,01,03,10,12,4.60
2007,01,03,10,13,1.50
2007,01,03,10,14,1.70
2007,01,03,10,15,3.00
2007,01,03,10,16,3.20
2007,01,03,10,17,3.20
2007,01,03,10,18,2.30
2007,01,03,10,19,2.40
2007,01,03,10,20,0.70
2007,01,03,10,21,2.10
2007,01,03,10,22,3.00
2007,01,03,10,23,2.30
2007,01,03,10,24,6.00
2007,01,03,10,25,3.10
2007,01,03,10,26,4.10
2007,01,03,10,27,1.20
2007,01,03,10,28,0.90
2007,01,03,10,29,0.20
2007,01,03,10,30,0.30
2007,01,03,10,31,2.10
2007,01,03,10,32,2.50
2007,01,03,10,33,2.30
2007,01,03,10,34,0.90
2007,01,03,10,35,2.90
2007,01,03,10,36,1.30
2007,01,03,10,37,1.40
2007,01,03,10,38,1.10
2007,01,03,10,39,3.10
2007,01,03,10,40,3.50
2007,01,03,10,41,2.00
2007,01,03,10,42,1.30
2007,01,03,10,43,3.50
2007,01,03,10,44,3.80
2007,01,03,10,45,4.30
2007,01,03,10,46,4.20
2007,01,03,10,47,3.00
2007,01,03,10,48,2.40
2007,01,03,10,49,3.90
2007,01,03,10,50,7.40
2007,01,03,10,51,3.30
2007,01,03,10,52,5.90
2007,01,03,10,53,5.80
2007,01,03,10,54,4.40
2007,01,03,10,55,2.50
2007,01,03,10,56,3.90
2007,01,03,10,57,6.80
2007,01,03,10,58,4.30
2007,01,03,10,59,4.30
2007,01,03,11,00,5.10
2007,01,03,11,01,4.40
2007,01,03,11,02,3.70
2007,01,03,11,03,5.30
2007,01,03,11,04,9.10
2007,01,03,11,05,5.10
2007,01,03,11,06,5.60
2007,01,03,11,07,4.90
2007,01,03,11,08,9.00
2007,01,03,11,09,7.00
2007,01,03,11,10,8.90
2007,01,03,11,11,9.30
2007,01,03,11,12,5.90
2007,01,03,11,13,4.40
2007,01,03,11,14,3.90
2007,01,03,11,15,4.30
2007,01,03,11,16,3.10
2007,01,03,11,17,2.30
2007,01,03,11,18,4.70
2007,01,03,11,19,3.90
2007,01,03,11,20,4.10
2007,01,03,11,21,1.90
2007,01,03,11,22,3.40
2007,01,03,11,23,3.80
2007,01,03,11,24,0.60
2007,01,03,11,25,1.70
2007,01,03,11,26,1.40
2007,01,03,11,27,0.90
2007,01,03,11,28,2.50
2007,01,03,11,29,1.50
2007,01,03,11,30,3.30
2007,01,03,11,31,3.40
2007,01,03,11,32,0.80
2007,01,03,11,33,2.00
2007,01,03,11,34,3.60
2007,01,03,11,35,4.20
2007,01,03,11,36,1.70
2007,01,03,11,37,0.50
2007,01,03,11,38,0.30
2007,01,03,11,39,2.10
2007,01,03,11,40,0.60
2007,01,03,11,41,3.40
2007,01,03,11,42,2.10
2007,01,03,11,43,2.90
2007,01,03,11,44,1.30
2007,01,03,11,45,1.20
2007,01,03,11,46,3.10
2007,01,03,11,47,1.70
2007,01,03,11,48,1.50
2007,01,03,11,49,3.00
2007,01,03,11,50,1.50
2007,01,03,11,51,1.80
2007,01,03,11,52,1.70
2007,01,03,11,53,1.50
2007,01,03,11,54,2.40
2007,01,03,11,55,1.30
2007,01,03,11,56,3.40
2007,01,03,11,57,2.30
2007,01,03,11,58,3.00
2007,01,03,11,59,1.00
2007,01,03,12,00,7.70
2007,01,03,12,01,5.50
2007,01,03,12,02,7.20
2007,01,03,12,03,6.40
2007,01,03,12,04,3.10
2007,01,03,12,05,11.50
2007,01,03,12,06,5.90
2007,01,03,12,07,4.10
2007,01,03,12,08,2.60
2007,01,03,12,09,5.00
2007,01,03,12,10,5.30
2007,01,03,12,11,6.60
2007,01,03,12,12,6.90
2007,01,03,12,13,4.40
2007,01,03,12,14,2.80
2007,01,03,12,15,8.60
2007,01,03,12,16,7.90
2007,01,03,12,17,10.70
2007,01,03,12,18,7.60
2007,01,03,12,19,13.50
2007,01,03,12,20,7.40
2007,01,03,12,21,15.00
2007,01,03,12,22,9.30
2007,01,03,12,23,8.10
2007,01,03,12,24,9.50
2007,01,03,12,25,11.30
2007,01,03,12,26,12.20
2007,01,03,12,27,15.20
2007,01,03,12,28,8.60
2007,01,03,12,29,12.40
2007,01,03,12,30,10.50
2007,01,03,12,31,7.10
2007,01,03,12,32,11.30
2007,01,03,12,33,6.50
2007,01,03,12,34,8.30
2007,01,03,12,35,4.70
2007,01,03,12,36,7.10
2007,01,03,12,37,8.10
2007,01,03,12,38,7.70
2007,01,03,12,39,7.80
2007,01,03,12,40,9.90
2007,01,03,12,41,7.90
2007,01,03,12,42,5.80
2007,01,03,12,43,5.60
2007,01,03,12,44,3.10
2007,01,03,12,45,0.30
2007,01,03,12,46,0.40
2007,01,03,12,47,1.10
2007,01,03,12,48,3.20
2007,01,03,12,49,5.60
2007,01,03,12,50,0.30
2007,01,03,12,51,0.00
2007,01,03,12,52,0.00
2007,01,03,12,53,1.60
2007,01,03,12,54,1.10
2007,01,03,12,55,0.50
2007,01,03,12,56,1.00
2007,01,03,12,57,0.60
2007,01,03,12,58,1.80
2007,01,03,12,59,0.00
2007,01,03,13,00,0.00
2007,01,03,13,01,0.00
2007,01,03,13,02,1.80
2007,01,03,13,03,3.30
2007,01,03,13,04,3.50
2007,01,03,13,05,3.80
2007,01,03,13,06,2.50
2007,01,03,13,07,0.50
2007,01,03,13,08,0.30
2007,01,03,13,09,3.70
2007,01,03,13,10,5.00
2007,01,03,13,11,3.70
2007,01,03,13,12,1.00
2007,01,03,13,13,9.00
2007,01,03,13,14,6.50
2007,01,03,13,15,8.00
2007,01,03,13,16,7.60
2007,01,03,13,17,9.50
2007,01,03,13,18,12.60
2007,01,03,13,19,11.70
2007,01,03,13,20,9.90
2007,01,03,13,21,7.70
2007,01,03,13,22,14.20
2007,01,03,13,23,12.20
2007,01,03,13,24,7.20
2007,01,03,13,25,9.20
2007,01,03,13,26,8.80
2007,01,03,13,27,7.70
2007,01,03,13,28,9.80
2007,01,03,13,29,10.30
2007,01,03,13,30,9.70
2007,01,03,13,31,9.70
2007,01,03,13,32,7.20
2007,01,03,13,33,5.30
2007,01,03,13,34,4.70
2007,01,03,13,35,7.70
2007,01,03,13,36,4.00
2007,01,03,13,37,5.20
2007,01,03,13,38,3.10
2007,01,03,13,39,2.20
2007,01,03,13,40,4.60
2007,01,03,13,41,4.60
2007,01,03,13,42,4.80
2007,01,03,13,43,4.30
2007,01,03,13,44,6.30
2007,01,03,13,45,2.90
2007,01,03,13,46,5.10
2007,01,03,13,47,7.30
2007,01,03,13,48,6.00
2007,01,03,13,49,6.60
2007,01,03,13,50,9.90
2007,01,03,13,51,10.90
2007,01,03,13,52,7.50
2007,01,03,13,53,3.60
2007,01,03,13,54,4.60
2007,01,03,13,55,10.40
2007,01,03,13,56,6.10
2007,01,03,13,57,4.00
2007,01,03,13,58,6.30
2007,01,03,13,59,2.20
2007,01,03,14,00,2.40
2007,01,03,14,01,3.70
2007,01,03,14,02,4.00
2007,01,03,14,03,5.40
2007,01,03,14,04,4.30
2007,01,03,14,05,1.90
2007,01,03,14,06,2.00
2007,01,03,14,07,3.60
2007,01,03,14,08,6.40
2007,01,03,14,09,3.50
2007,01,03,14,10,3.90
2007,01,03,14,11,3.10
2007,01,03,14,12,2.50
2007,01,03,14,13,2.10
2007,01,03,14,14,2.00
2007,01,03,14,15,1.10
2007,01,03,14,16,3.60
2007,01,03,14,17,3.60
2007,01,03,14,18,3.20
2007,01,03,14,19,5.70
2007,01,03,14,20,8.40
2007,01,03,14,21,8.70
2007,01,03,14,22,9.10
2007,01,03,14,23,7.40
2007,01,03,14,24,5.00
2007,01,03,14,25,11.00
2007,01,03,14,26,8.00
2007,01,03,14,27,5.60
2007,01,03,14,28,5.10
2007,01,03,14,29,4.80
2007,01,03,14,30,4.50
2007,01,03,14,31,6.70
2007,01,03,14,32,6.00
2007,01,03,14,33,2.80
2007,01,03,14,34,3.00
2007,01,03,14,35,2.80
2007,01,03,14,36,6.40
2007,01,03,14,37,6.00
2007,01,03,14,38,4.70
2007,01,03,14,39,4.80
2007,01,03,14,40,5.50
2007,01,03,14,41,2.70
2007,01,03,14,42,5.90
2007,01,03,14,43,6.60
2007,01,03,14,44,5.10
2007,01,03,14,45,5.10
2007,01,03,14,46,0.90
2007,01,03,14,47,4.80
2007,01,03,14,48,4.00
2007,01,03,14,49,2.80
2007,01,03,14,50,3.10
2007,01,03,14,51,7.00
2007,01,03,14,52,5.00
2007,01,03,14,53,2.70
2007,01,03,14,54,3.90
2007,01,03,14,55,0.30
2007,01,03,14,56,4.40
2007,01,03,14,57,3.90
2007,01,03,14,58,8.50
2007,01,03,14,59,8.00
2007,01,03,15,00,5.60
2007,01,03,15,01,7.80
2007,01,03,15,02,6.60
2007,01,03,15,03,7.80
2007,01,03,15,04,5.50
2007,01,03,15,05,4.30
2007,01,03,15,06,4.50
2007,01,03,15,07,4.70
2007,01,03,15,08,5.30
2007,01,03,15,09,7.50
2007,01,03,15,10,6.60
2007,01,03,15,11,9.30
2007,01,03,15,12,8.30
2007,01,03,15,13,8.00
2007,01,03,15,14,9.90
2007,01,03,15,15,14.30
2007,01,03,15,16,9.50
2007,01,03,15,17,11.10
2007,01,03,15,18,10.30
2007,01,03,15,19,10.60
2007,01,03,15,20,7.50
2007,01,03,15,21,7.30
2007,01,03,15,22,4.80
2007,01,03,15,23,1.90
2007,01,03,15,24,3.10
2007,01,03,15,25,11.50
2007,01,03,15,26,9.70
2007,01,03,15,27,7.90
2007,01,03,15,28,5.70
2007,01,03,15,29,7.40
2007,01,03,15,30,7.20
2007,01,03,15,31,4.90
2007,01,03,15,32,5.60
2007,01,03,15,33,9.10
2007,01,03,15,34,7.10
2007,01,03,15,35,6.40
2007,01,03,15,36,8.50
2007,01,03,15,37,8.90
2007,01,03,15,38,6.40
2007,01,03,15,39,7.30
2007,01,03,15,40,5.60
2007,01,03,15,41,7.20
2007,01,03,15,42,3.30
2007,01,03,15,43,6.90
2007,01,03,15,44,6.10
2007,01,03,15,45,1.40
2007,01,03,15,46,1.80
2007,01,03,15,47,2.60
2007,01,03,15,48,6.40
2007,01,03,15,49,5.60
2007,01,03,15,50,2.30
2007,01,03,15,51,0.20
2007,01,03,15,52,0.10
2007,01,03,15,53,0.00
2007,01,03,15,54,1.40
2007,01,03,15,55,3.30
2007,01,03,15,56,2.20
2007,01,03,15,57,2.40
2007,01,03,15,58,1.10
2007,01,03,15,59,4.60
2007,01,03,16,00,5.50
2007,01,03,16,01,4.40
2007,01,03,16,02,1.50
2007,01,03,16,03,0.20
2007,01,03,16,04,1.30
2007,01,03,16,05,0.50
2007,01,03,16,06,0.20
2007,01,03,16,07,0.00
2007,01,03,16,08,0.00
2007,01,03,16,09,0.00
2007,01,03,16,10,0.00
2007,01,03,16,11,0.00
2007,01,03,16,12,0.00
2007,01,03,16,13,0.00
2007,01,03,16,14,0.00
2007,01,03,16,15,0.00
2007,01,03,16,16,0.00
2007,01,03,16,17,0.00
2007,01,03,16,18,0.00
2007,01,03,16,19,0.00
2007,01,03,16,20,0.00
2007,01,03,16,21,0.00
2007,01,03,16,22,0.00
2007,01,03,16,23,0.00
2007,01,03,16,24,0.00
2007,01,03,16,25,0.00
2007,01,03,16,26,1.40
2007,01,03,16,27,0.00
2007,01,03,16,28,1.90
2007,01,03,16,29,3.00
2007,01,03,16,30,0.70
2007,01,03,16,31,2.30
2007,01,03,16,32,0.80
2007,01,03,16,33,3.50
2007,01,03,16,34,2.60
2007,01,03,16,35,1.90
2007,01,03,16,36,0.90
2007,01,03,16,37,0.40
2007,01,03,16,38,1.30
2007,01,03,16,39,2.90
2007,01,03,16,40,5.60
2007,01,03,16,41,5.80
2007,01,03,16,42,1.40
2007,01,03,16,43,4.20
2007,01,03,16,44,1.20
2007,01,03,16,45,3.60
2007,01,03,16,46,4.40
2007,01,03,16,47,4.70
2007,01,03,16,48,5.60
2007,01,03,16,49,4.50
2007,01,03,16,50,7.20
2007,01,03,16,51,5.30
2007,01,03,16,52,5.30
2007,01,03,16,53,5.10
2007,01,03,16,54,4.70
2007,01,03,16,55,4.40
2007,01,03,16,56,2.00
2007,01,03,16,57,3.90
2007,01,03,16,58,0.60
2007,01,03,16,59,5.30
2007,01,03,17,00,9.40
2007,01,03,17,01,4.80
2007,01,03,17,02,5.20
2007,01,03,17,03,7.20
2007,01,03,17,04,6.30
2007,01,03,17,05,7.10
2007,01,03,17,06,3.70
2007,01,03,17,07,6.40
2007,01,03,17,08,4.80
2007,01,03,17,09,4.50
2007,01,03,17,10,4.80
2007,01,03,17,11,5.10
2007,01,03,17,12,3.80
2007,01,03,17,13,2.30
2007,01,03,17,14,4.30
2007,01,03,17,15,6.00
2007,01,03,17,16,4.70
2007,01,03,17,17,4.80
2007,01,03,17,18,6.00
2007,01,03,17,19,5.50
2007,01,03,17,20,2.40
2007,01,03,17,21,5.20
2007,01,03,17,22,6.40
2007,01,03,17,23,6.20
2007,01,03,17,24,6.80
2007,01,03,17,25,3.10
2007,01,03,17,26,2.30
2007,01,03,17,27,5.20
2007,01,03,17,28,4.20
2007,01,03,17,29,6.50
2007,01,03,17,30,7.50
2007,01,03,17,31,8.50
2007,01,03,17,32,7.70
2007,01,03,17,33,4.70
2007,01,03,17,34,5.30
2007,01,03,17,35,6.10
2007,01,03,17,36,8.50
2007,01,03,17,37,7.80
2007,01,03,17,38,7.20
2007,01,03,17,39,8.10
2007,01,03,17,40,7.70
2007,01,03,17,41,6.40
2007,01,03,17,42,9.30
2007,01,03,17,43,14.50
2007,01,03,17,44,9.90
2007,01,03,17,45,7.20
2007,01,03,17,46,5.10
2007,01,03,17,47,3.20
2007,01,03,17,48,1.80
2007,01,03,17,49,2.90
2007,01,03,17,50,4.00
2007,01,03,17,51,1.90
2007,01,03,17,52,3.60
2007,01,03,17,53,4.60
2007,01,03,17,54,2.80
2007,01,03,17,55,4.20
2007,01,03,17,56,3.40
2007,01,03,17,57,5.50
2007,01,03,17,58,5.50
2007,01,03,17,59,5.00
2007,01,03,18,00,6.90
2007,01,03,18,01,6.40
2007,01,03,18,02,4.60
2007,01,03,18,03,3.60
2007,01,03,18,04,7.40
2007,01,03,18,05,6.60